Home > Weather > Riverside > Past weeks

Flag for USA Past Weather in Riverside, California, USA — Yesterday and Last 2 Weeks

Now
77 °F

Clear.


Feels Like: 78 °F
Forecast: 71 / 105 °F
Wind: 3 mph from Southwest

Location: Riverside Municipal Airport

Current Time: Jul 23, 2016 at 4:26:19 AM

Latest Report: Jul 23, 2016 at 3:53 AM


Visibility: 10 mi

Pressure: 29.76 "Hg

Humidity: 42%

Dew Point: 52 °F

Location of RiversideLocation

Past Weather in Riverside — Graph

°F

Riverside Temperature Yesterday

Maximum temperature yesterday: 108 °F (at 2:53 PM)
Minimum temperature yesterday: 70 °F (at 5:53 AM)
Average temperature yesterday: 89 °F

High & Low Weather Summary for the Past Weeks

 TemperatureHumidityPressure
High108 °F (Jul 22, 2:53 PM)90% (Jul 16, 5:53 AM)30.00 "Hg (Jul 16, 5:53 AM)
Low63 °F (Jul 8, 4:53 AM)7% (Jul 22, 1:53 PM)29.76 "Hg (Jul 11, 4:53 PM)
Average79 °F48%29.89 "Hg
* Reported Jul 8 2:53 AM — Jul 23 2:53 AM, Riverside, Weather by CustomWeather, © 2016

Note: Actual official high and low records may vary slightly from our data, if they occured in-between our weather recording intervals... More about our weather records

Advertising

Riverside Weather History for the Previous 24 Hours

Scroll right to see more
 ConditionsComfort  
Time TempWeatherWind HumidityBarometerVisibility
2:53 AM
Sat, Jul 23
79 °FClear.No wind39%29.77 "Hg10 mi
1:53 AM79 °FClear.No wind42%29.77 "Hg10 mi
12:53 AM81 °FClear.No wind41%29.79 "Hg10 mi
11:53 PM
Fri, Jul 22
83 °FClear.No wind37%29.80 "Hg10 mi
10:53 PM85 °FClear.No wind31%29.80 "Hg10 mi
9:53 PM87 °FClear.3 mph28%29.81 "Hg10 mi
8:53 PM90 °FSunny.3 mph27%29.80 "Hg10 mi
7:53 PM94 °FSunny.6 mph21%29.78 "Hg10 mi
6:53 PM99 °FPassing clouds.12 mph15%29.78 "Hg10 mi
5:53 PM102 °FPassing clouds.14 mph17%29.77 "Hg10 mi
4:53 PM104 °FSunny.13 mph16%29.78 "Hg10 mi
3:53 PM108 °FPassing clouds.12 mph11%29.78 "Hg10 mi
2:53 PM108 °FSunny.9 mph8%29.81 "Hg10 mi
1:53 PM107 °FSunny.6 mph7%29.83 "Hg10 mi
12:53 PM104 °FSunny.8 mph9%29.87 "Hg10 mi
11:53 AM101 °FSunny.5 mph9%29.89 "Hg10 mi
10:53 AM96 °FSunny.No wind12%29.90 "Hg10 mi
9:53 AM90 °FSunny.5 mph18%29.91 "Hg10 mi
8:53 AM84 °FSunny.No wind25%29.92 "Hg10 mi
7:53 AM78 °FSunny.3 mph33%29.91 "Hg10 mi
6:53 AM73 °FClear.No wind43%29.90 "Hg10 mi
5:53 AM70 °FClear.5 mph47%29.88 "Hg10 mi
4:53 AM73 °FClear.No wind36%29.87 "Hg10 mi
Weather by CustomWeather, © 2016

See weather overviewHow to use our weather pages